Terminal Aerodrome Forecast
Issued by NWS

Home | Current Version | Previous Version | Graphics & Text | Print | Product List | Glossary On
Versions: 1 2 3 4 5 6 7 8 9 10 11 12 13 14 15 16
000
FTUS43 KGRB 031600 AAC
TAFAUW
TAF AMD
KAUW 031615Z 0316/0412 16007KT 2SM -FZDZSN BR OVC018
      TEMPO 0316/0318 1/4SM SN FZFG BKN007
     FM031900 26010KT P6SM -SN SCT009 OVC025
     FM040000 29011KT P6SM SCT020 BKN100
     FM040200 30012G20KT P6SM SCT100=

USA.gov is the U.S. government's official web portal to all federal, state and local government web resources and services.